FW1525 Navojoa MX current weather conditions

sailwx.info

Wind from 130 at 6 knots gusting 12

Air temperature 25.6° C
Dewpoint 21.2° C

Last reported at 2020-May-31 09:14 UTC.
Time now 2020-May-31 12:11 UTC

Location: N 27°05' W 109°27'.
View on Google Maps.

See reports from other nearby stations

  
Tides and Currents Weather Stations Pressure Air Temp Water Temp Dewpoint Dewpoint Depression Visibility Wind Speed Wind Dir Waves Ship Positions
date/time (UTC)wind fromknots sea level pressurealtimeterstation pressurevisibilityair tempwater tempwave heightnotes
2020-May-31 09:14 130 6 gusting 12 25.6
2020-May-31 09:09 132 5 gusting 17 26.1
2020-May-31 09:04 136 4 gusting 17 26.1
2020-May-31 08:59 145 4 gusting 17 26.1
2020-May-31 08:54 141 6 gusting 17 26.1
2020-May-31 08:49 135 6 gusting 16 26.1
2020-May-31 08:44 131 7 gusting 16 26.1
2020-May-31 08:39 152 6 gusting 16 26.1
2020-May-31 08:34 143 7 gusting 16 26.1
2020-May-31 08:29 126 6 gusting 13 26.1
2020-May-31 08:24 142 6 gusting 13 26.7
2020-May-31 08:19 148 6 gusting 13 26.7
2020-May-31 08:14 148 7 gusting 13 26.7
2020-May-31 08:09 132 4 gusting 12 26.7
2020-May-31 08:04 142 6 gusting 13 26.7
2020-May-31 07:59 132 5 gusting 13 26.7
2020-May-31 07:54 147 5 gusting 13 26.7
2020-May-31 07:49 151 6 gusting 13 26.7
2020-May-31 07:44 156 6 gusting 13 26.7
2020-May-31 07:39 146 7 gusting 13 26.7
2020-May-31 07:34 151 6 gusting 11 26.7
2020-May-31 07:29 164 5 gusting 11 26.7
2020-May-31 07:24 168 6 gusting 12 26.7
2020-May-31 07:19 161 5 gusting 12 26.7
2020-May-31 07:14 161 4 gusting 12 26.7
2020-May-31 07:09 158 6 gusting 12 26.7
2020-May-31 07:04 150 6 gusting 11 27.2
2020-May-31 06:59 156 6 gusting 11 27.2
2020-May-31 06:54 168 6 gusting 11 27.2
2020-May-31 06:49 157 5 gusting 9 27.2
2020-May-31 06:44 158 3 gusting 9 27.2
2020-May-31 06:39 159 4 gusting 9 27.2
2020-May-31 06:34 161 3 gusting 9 27.2
2020-May-31 06:29 155 4 gusting 8 27.2
2020-May-31 06:24 144 6 gusting 8 27.2
2020-May-31 06:19 136 3 gusting 9 27.2
2020-May-31 06:14 147 4 gusting 9 27.2
2020-May-31 06:09 147 3 gusting 9 27.2
2020-May-31 06:04 138 3 gusting 9 27.2
2020-May-31 05:59 130 5 gusting 9 27.2
2020-May-31 05:54 126 5 gusting 9 27.2
2020-May-31 05:49 136 4 gusting 9 27.2
2020-May-31 05:44 147 5 gusting 9 27.2
2020-May-31 05:39 151 4 gusting 8 27.2
2020-May-31 05:34 150 4 gusting 8 27.2
2020-May-31 05:29 142 4 gusting 8 27.2
2020-May-31 05:24 166 3 gusting 8 27.2
2020-May-31 05:19 133 4 gusting 8 27.2
2020-May-31 05:14 133 4 gusting 9 27.2
2020-May-31 05:09 152 3 gusting 9 27.2
2020-May-31 05:04 150 4 gusting 9 27.2
2020-May-31 04:58 140 4 gusting 10 27.2
2020-May-31 04:53 160 5 gusting 10 27.2
2020-May-31 04:48 172 2 gusting 10 27.2
2020-May-31 04:43 151 6 gusting 10 27.2
2020-May-31 04:38 148 6 gusting 9 27.2
2020-May-31 04:33 180 2 gusting 9 27.2
2020-May-31 04:28 166 1 gusting 10 27.2
2020-May-31 04:23 195 4 gusting 10 27.2
2020-May-31 04:18 191 3 gusting 11 27.8
2020-May-31 04:13 169 4 gusting 11 27.8
2020-May-31 04:08 172 2 gusting 13 27.8
2020-May-31 04:03 192 5 gusting 13 27.8
2020-May-31 03:58 172 4 gusting 13 27.8
2020-May-31 03:53 163 4 gusting 13 27.8
2020-May-31 03:48 162 6 gusting 13 27.8
2020-May-31 03:43 180 5 gusting 12 28.3
2020-May-31 03:38 162 6 gusting 11 28.3
2020-May-31 03:33 185 5 gusting 12 28.3
2020-May-31 03:28 194 5 gusting 12 28.3
2020-May-31 03:23 170 5 gusting 12 28.3
2020-May-31 03:18 201 6 gusting 12 28.9
2020-May-31 03:13 208 5 gusting 12 28.9
2020-May-31 03:08 186 6 gusting 12 28.9
2020-May-31 03:03 183 6 gusting 12 29.4
2020-May-31 02:58 201 4 gusting 11 29.4
2020-May-31 02:53 206 5 gusting 11 29.4
2020-May-31 02:48 189 6 gusting 11 30.0
2020-May-31 02:43 205 6 gusting 11 30.0
2020-May-31 02:38 188 6 gusting 11 30.6
2020-May-31 02:33 213 6 gusting 11 30.6
2020-May-31 02:28 205 6 gusting 11 30.6
2020-May-31 02:23 207 4 gusting 11 31.1
2020-May-31 02:18 205 5 gusting 10 31.1
2020-May-31 02:13 197 4 gusting 10 31.1
2020-May-31 02:08 204 3 gusting 10 31.1
2020-May-31 02:03 212 4 gusting 10 31.7
2020-May-31 01:58 233 3 gusting 9 31.7
2020-May-31 01:53 205 4 gusting 9 32.2
2020-May-31 01:48 200 2 gusting 8 32.2
2020-May-31 01:43 192 3 gusting 8 32.2
2020-May-31 01:38 210 4 gusting 8 32.2
2020-May-31 01:33 218 3 gusting 11 32.2
2020-May-31 01:28 213 4 gusting 11 32.2
2020-May-31 01:23 217 5 gusting 11 32.8
2020-May-31 01:17 217 5 gusting 11 32.8
2020-May-31 01:12 235 6 gusting 10 32.8
2020-May-31 01:07 245 2 gusting 10 32.8
2020-May-31 01:02 223 4 gusting 10 33.3
2020-May-31 00:57 218 4 gusting 11 33.3
2020-May-31 00:52 196 5 gusting 11 33.3
2020-May-31 00:47 236 3 gusting 11 33.3
2020-May-31 00:42 220 4 gusting 11 33.3
2020-May-31 00:37 232 5 gusting 11 33.3
2020-May-31 00:32 260 3 gusting 11 33.3
2020-May-31 00:27 250 4 gusting 11 33.3
2020-May-31 00:22 234 5 gusting 12 33.3
2020-May-31 00:17 215 3 gusting 13 33.3
2020-May-31 00:12 243 5 gusting 14 33.3
2020-May-31 00:07 234 6 gusting 14 33.9
2020-May-31 00:02 250 6 gusting 14 33.9
2020-May-30 23:57 243 7 gusting 14 33.9
2020-May-30 23:52 235 8 gusting 16 33.9
2020-May-30 23:47 231 6 gusting 16 33.9
2020-May-30 23:42 248 6 gusting 16 33.9
2020-May-30 23:37 237 7 gusting 16 33.9
2020-May-30 23:32 240 6 gusting 16 34.4
2020-May-30 23:27 231 6 gusting 16 34.4
2020-May-30 23:22 230 7 gusting 15 34.4
2020-May-30 23:17 234 6 gusting 15 34.4
2020-May-30 23:12 248 9 gusting 15 34.4
2020-May-30 23:07 231 5 gusting 14 34.4
2020-May-30 23:02 241 6 gusting 14 34.4
2020-May-30 22:57 220 6 gusting 14 34.4
2020-May-30 22:52 223 7 gusting 14 35.0
2020-May-30 22:47 232 6 gusting 17 35.0
2020-May-30 22:42 241 6 gusting 17 35.0
2020-May-30 22:37 230 8 gusting 17 35.0
2020-May-30 22:32 242 8 gusting 17 35.0
2020-May-30 22:27 229 6 gusting 16 35.6
2020-May-30 22:22 239 6 gusting 16 35.6
2020-May-30 22:17 221 7 gusting 16 35.6
2020-May-30 22:12 223 5 gusting 17 35.6
2020-May-30 22:07 229 6 gusting 17 35.6
2020-May-30 22:02 233 7 gusting 17 35.6
2020-May-30 21:57 193 7 gusting 17 35.6
2020-May-30 21:52 224 7 gusting 16 36.1
2020-May-30 21:47 236 6 gusting 13 36.1
2020-May-30 21:42 198 6 gusting 14 36.7
2020-May-30 21:37 218 5 gusting 14 36.1
2020-May-30 21:32 208 4 gusting 14 36.1
2020-May-30 21:27 219 7 gusting 14 36.1
2020-May-30 21:22 233 5 gusting 14 36.1
2020-May-30 21:17 206 6 gusting 14 36.7
2020-May-30 21:12 224 5 gusting 14 36.7
2020-May-30 21:07 183 6 gusting 14 36.1
2020-May-30 21:02 220 5 gusting 14 36.1
2020-May-30 20:57 218 5 gusting 14 35.6
2020-May-30 20:51 173 5 gusting 14 35.6
2020-May-30 20:46 218 5 gusting 13 35.6
2020-May-30 20:41 235 5 gusting 11 35.6
2020-May-30 20:36 244 5 gusting 12 35.0
2020-May-30 20:31 257 6 gusting 12 35.0
2020-May-30 20:26 230 6 gusting 13 35.0
2020-May-30 20:21 241 6 gusting 13 35.6
2020-May-30 20:16 238 3 gusting 13 35.0
2020-May-30 20:11 244 7 gusting 13 35.0
2020-May-30 20:06 256 6 gusting 12 35.0
2020-May-30 20:01 256 4 gusting 12 35.0
2020-May-30 19:56 236 2 gusting 14 34.4
2020-May-30 19:51 253 6 gusting 14 34.4
2020-May-30 19:46 266 2 gusting 14 33.9
2020-May-30 19:41 257 5 gusting 14 34.4
2020-May-30 19:36 261 4 gusting 12 34.4
2020-May-30 09:40 209 1 gusting 3 25.6
2020-May-30 09:35 199 1 gusting 3 25.6
2020-May-30 09:30 208 1 gusting 3 25.6
2020-May-30 09:25 235 0 gusting 3 25.6
2020-May-30 09:20 246 0 gusting 1 25.6
2020-May-30 09:14 323 25.6
2020-May-30 09:09 323 0 gusting 1 25.6
2020-May-30 09:04 323 0 gusting 3 25.6
2020-May-30 08:59 325 0 gusting 3 25.6
2020-May-30 08:54 305 0 gusting 3 25.6
2020-May-30 08:49 291 0 gusting 3 25.6
2020-May-30 08:44 296 1 gusting 3 25.6
2020-May-30 08:39 311 1 gusting 4 25.6
2020-May-30 08:34 312 1 gusting 4 25.6
2020-May-30 08:29 291 1 gusting 4 25.6
2020-May-30 08:24 296 1 gusting 6 25.6
2020-May-30 08:19 299 1 gusting 6 25.6
2020-May-30 08:14 308 2 gusting 6 25.6
2020-May-30 08:09 291 1 gusting 6 25.6
2020-May-30 08:04 311 1 gusting 5 25.6
2020-May-30 07:59 290 2 gusting 6 25.6
2020-May-30 07:54 283 1 gusting 6 25.6
2020-May-30 07:49 291 1 gusting 6 25.6
2020-May-30 07:44 298 3 gusting 6 26.1
2020-May-30 07:39 297 2 gusting 6 26.1
2020-May-30 07:34 293 3 gusting 6 26.7
2020-May-30 07:29 279 1 gusting 5 26.7
2020-May-30 07:24 267 1 gusting 6 26.7
2020-May-30 07:19 240 2 gusting 6 26.7
2020-May-30 07:14 249 2 gusting 6 26.7
2020-May-30 07:09 237 4 gusting 6 26.7
2020-May-30 07:04 225 3 gusting 5 27.2
2020-May-30 06:59 249 2 gusting 5 27.2
2020-May-30 06:54 246 3 gusting 5 27.2
2020-May-30 06:49 218 1 gusting 5 27.2
2020-May-30 06:44 216 2 gusting 5 27.2
2020-May-30 06:39 219 1 gusting 4 27.2
2020-May-30 06:34 216 1 gusting 4 27.2
2020-May-30 06:29 142 1 gusting 4 27.8
2020-May-30 06:24 163 2 gusting 4 27.8
2020-May-30 06:19 166 0 gusting 4 27.2
2020-May-30 06:14 169 0 gusting 6 27.2
2020-May-30 06:09 165 1 gusting 6 27.2
2020-May-30 06:04 134 1 gusting 8 27.2
2020-May-30 05:59 145 3 gusting 10 27.2
2020-May-30 05:54 148 3 gusting 10 27.2
2020-May-30 05:49 142 2 gusting 10 27.2
2020-May-30 05:44 146 6 gusting 10 27.8
2020-May-30 05:39 150 5 gusting 10 27.8
2020-May-30 05:34 138 3 gusting 8 27.8
2020-May-30 05:29 152 4 gusting 9 27.8
2020-May-30 05:24 158 3 gusting 9 27.8
2020-May-30 05:19 162 2 gusting 9 27.2
2020-May-30 05:14 139 4 gusting 9 27.2
2020-May-30 05:09 158 2 gusting 10 27.2
2020-May-30 05:04 144 6 gusting 11 27.2
2020-May-30 04:59 153 5 gusting 11 27.8
2020-May-30 04:54 170 4 gusting 11 27.8
2020-May-30 04:49 177 3 gusting 9 27.8
2020-May-30 04:44 170 5 gusting 9 28.3
2020-May-30 04:38 166 4 gusting 8 28.3
2020-May-30 04:33 157 4 gusting 6 28.3
2020-May-30 04:28 158 4 gusting 8 28.3
2020-May-30 04:23 221 2 gusting 8 28.3
2020-May-30 04:18 223 2 gusting 8 28.3
2020-May-30 04:13 223 4 gusting 8 28.3
2020-May-30 04:08 220 4 gusting 8 28.3
2020-May-30 04:03 220 1 gusting 8 28.3
2020-May-30 03:58 227 4 gusting 8 28.9
2020-May-30 03:53 233 3 gusting 8 28.9
2020-May-30 03:48 250 2 gusting 6 28.9
2020-May-30 03:43 279 1 gusting 6 28.9
2020-May-30 03:38 242 3 gusting 6 28.9
2020-May-30 03:33 270 2 gusting 6 28.9
2020-May-30 03:28 267 2 gusting 6 28.9
2020-May-30 03:23 271 2 gusting 8 28.9
2020-May-30 03:18 251 2 gusting 8 28.9
2020-May-30 03:13 270 2 gusting 9 28.9
2020-May-30 03:08 247 3 gusting 9 29.4
2020-May-30 03:03 221 4 gusting 9 29.4
2020-May-30 02:58 236 4 gusting 10 29.4
2020-May-30 02:53 226 4 gusting 10 29.4
2020-May-30 02:48 225 3 gusting 10 29.4
2020-May-30 02:43 222 2 gusting 10 29.4
2020-May-30 02:38 233 4 gusting 8 29.4
2020-May-30 02:33 242 3 gusting 10 29.4
2020-May-30 02:28 243 2 gusting 10 29.4
2020-May-30 02:23 235 3 gusting 10 30.0
2020-May-30 02:18 240 6 gusting 11 30.0
2020-May-30 02:13 251 3 gusting 11 30.6
2020-May-30 02:08 247 6 gusting 12 30.6
2020-May-30 02:02 243 5 gusting 12 30.6
2020-May-30 01:57 256 5 gusting 12 30.6
2020-May-30 01:52 250 6 gusting 13 31.1
2020-May-30 01:47 250 6 gusting 13 31.1
2020-May-30 01:42 260 3 gusting 13 31.1
2020-May-30 01:37 250 6 gusting 14 31.1
2020-May-30 01:32 253 6 gusting 14 31.7
2020-May-30 01:27 251 4 gusting 14 31.7
2020-May-30 01:22 247 6 gusting 14 31.7
2020-May-30 01:17 251 6 gusting 12 31.7
2020-May-30 01:12 238 6 gusting 12 31.7
2020-May-30 01:07 228 5 gusting 12 32.2
2020-May-30 01:02 250 6 gusting 12 32.2
2020-May-30 00:57 237 4 gusting 12 32.2
2020-May-30 00:52 216 5 gusting 12 32.2
2020-May-30 00:47 235 5 gusting 12 32.2
2020-May-30 00:42 231 5 gusting 12 32.2
2020-May-30 00:37 213 3 gusting 12 32.2
2020-May-30 00:32 239 5 gusting 11 32.2
2020-May-30 00:27 239 5 gusting 11 32.8
2020-May-30 00:22 212 3 gusting 11 32.8
2020-May-30 00:17 220 4 gusting 11 32.8
2020-May-30 00:12 242 4 gusting 12 32.2
2020-May-30 00:07 232 3 gusting 12 32.2
2020-May-30 00:02 217 5 gusting 12 32.2
2020-May-29 23:57 237 5 gusting 12 32.8
2020-May-29 23:51 226 4 gusting 12 32.8
2020-May-29 23:46 236 4 gusting 13 32.8
2020-May-29 23:41 235 3 gusting 13 32.8
2020-May-29 23:36 283 5 gusting 13 32.8
2020-May-29 23:31 244 4 gusting 13 32.2
2020-May-29 23:26 269 5 gusting 12 32.2
2020-May-29 23:21 257 6 gusting 12 32.2
2020-May-29 23:16 237 6 gusting 12 32.2
2020-May-29 23:11 228 4 gusting 13 32.2
2020-May-29 23:06 234 6 gusting 13 32.8
2020-May-29 23:01 272 5 gusting 13 32.2
2020-May-29 22:56 234 6 gusting 13 32.2
2020-May-29 22:51 258 6 gusting 14 32.8
2020-May-29 22:46 275 3 gusting 14 32.8
2020-May-29 22:41 273 4 gusting 14 32.8
2020-May-29 22:36 237 6 gusting 14 33.3
2020-May-29 22:31 269 4 gusting 14 32.8
2020-May-29 22:26 239 6 gusting 14 32.8
2020-May-29 22:21 268 6 gusting 14 32.8
2020-May-29 22:16 223 5 gusting 18 32.8
2020-May-29 22:11 259 5 gusting 18 32.8
2020-May-29 22:06 265 6 gusting 18 32.8
2020-May-29 22:01 233 6 gusting 18 32.8
2020-May-29 21:56 227 6 gusting 15 32.8
2020-May-29 21:50 234 5 gusting 15 33.3
2020-May-29 21:45 250 5 gusting 14 32.8
2020-May-29 21:40 243 6 gusting 14 32.8
2020-May-29 21:35 243 6 gusting 14 33.3
2020-May-29 21:30 273 4 gusting 14 33.3
2020-May-29 21:25 251 6 gusting 17 33.3
2020-May-29 21:20 246 5 gusting 17 33.3
2020-May-29 21:15 242 6 gusting 17 32.8
2020-May-29 21:10 244 6 gusting 13 32.8
2020-May-29 21:05 243 5 gusting 13 32.8
2020-May-29 21:00 208 6 gusting 13 33.3
2020-May-29 20:55 270 3 gusting 14 32.8
2020-May-29 20:50 226 5 gusting 14 33.3
2020-May-29 20:45 242 4 gusting 14 32.8
2020-May-29 20:40 242 6 gusting 16 33.3
2020-May-29 20:35 226 4 gusting 16 32.8
2020-May-29 20:30 213 5 gusting 16 32.8
2020-May-29 20:25 213 8 gusting 16 33.3
2020-May-29 20:20 219 5 gusting 15 33.3
2020-May-29 20:15 234 5 gusting 15 33.3
2020-May-29 20:10 210 6 gusting 14 33.3
2020-May-29 20:05 233 7 gusting 14 33.3
2020-May-29 20:00 216 5 gusting 13 33.3
2020-May-29 19:55 234 6 gusting 13 33.3
2020-May-29 19:50 246 3 gusting 13 32.8
2020-May-29 19:45 284 3 gusting 13 33.3
2020-May-29 19:40 243 4 gusting 16 32.8
2020-May-29 19:35 256 3 gusting 18 32.8
2020-May-29 19:30 210 2 gusting 18 32.2
2020-May-29 19:24 254 5 gusting 18 32.2
2020-May-29 19:19 218 2 gusting 15 32.2
2020-May-29 19:14 273 3 gusting 15 32.2
2020-May-29 19:09 250 3 gusting 15 32.2
2020-May-29 19:04 213 5 gusting 12 32.2
2020-May-29 18:59 241 4 gusting 11 31.7
2020-May-29 18:54 262 5 gusting 11 32.2
2020-May-29 18:49 198 4 gusting 11 32.2
2020-May-29 18:44 224 4 gusting 11 31.7
2020-May-29 18:39 278 3 gusting 11 31.7